Regional Weather Roundup
Issued by NWS

Home | Current Version | Previous Version | Text Only | Print | Product List | Glossary On
Versions: 1 2 3 4 5 6 7 8 9 10 11 12 13 14 15 16 17 18 19 20 21 22 23 24 25 26 27 28 29 30 31 32 33 34 35 36 37 38 39 40 41 42 43 44 45 46 47 48 49 50
000
ASCA42 TJSJ 272210
RWRPR
PUERTO RICO/U.S. VIRGIN ISLANDS HOURLY WEATHER ROUNDUP
NATIONAL WEATHER SERVICE SAN JUAN PR
600 PM AST FRI FEB 27 2015

PRZ001-004-272300-
PUERTO RICO

CITY           SKY/WX    TMP DP  RH WIND       PRES   REMARKS
SAN JUAN LMM   PTCLDY    79  72  78 E9        30.05R
MAYAGUEZ       MOCLDY    82  72  69 S5        30.03
CEIBA          MOCLDY    79  70  73 E13G21    30.07R
$$

PRZ006-007-272300-
U.S. VIRGIN ISLANDS

CITY           SKY/WX    TMP DP  RH WIND       PRES   REMARKS
$$

HOURLY WEATHER ROUNDUP FOR THE NEWS MEDIA

CITY           SKY/WX    TMP DP  RH WIND       PRES   REMARKS
ORLANDO        CLOUDY    56  48  74 NE12      30.21S
NEW YORK       PTCLDY    31   4  31 W12G22    30.44R WCI  22
NEWARK         PTCLDY    29   6  38 W10G21    30.43R WCI  20
CHICAGO        SUNNY     13  -4  46 W10       30.58F WCI   0
HARTFORD       FAIR      27   3  35 W6        30.36R WCI  20
BOSTON         PTCLDY    26  -3  28 W8        30.37R WCI  18
DALLAS         LGT SNOW  28  25  86 N12       30.43S VSB 3/4 WCI  18
PHILADELPHIA   CLEAR     30   7  37 NW6       30.49R WCI  24
LOS ANGELES    PTSUNNY   63  51  65 SW10      29.79F
WASHINGTON DC  MOSUNNY   30   7  37 NW8       30.48S WCI  22



USA.gov is the U.S. government's official web portal to all federal, state and local government web resources and services.